When you browse on this site, cookies collect data to enhance your experience and personalize the content and advertising you see.
Visit our Privacy Policy to learn more. By continuing to use the site, you agree to this use of cookies and data.
  • In Romania
  • List of Countries
  • For 7 days
  • Water Temperature
  • Satellite Maps
  • Weather Map
  • Weather Widgets
  • user-avatar
    Login

    Hourly Weather Gulabpura

    Today, 24 April, Wednesday

    Time Temperature Precipitation Wind Pressure Humidity
    00:00 +36°C° 0 mm 5 mps 723 mmHg 15%
    01:00 +36°C° 0 mm 6 mps 723 mmHg 15%
    02:00 +36°C° 0 mm 7 mps 722 mmHg 16%
    03:00 +35°C° 0 mm 7 mps 723 mmHg 16%
    04:00 +34°C° 0 mm 7 mps 723 mmHg 17%
    05:00 +34°C° 0 mm 5 mps 723 mmHg 17%
    06:00 +35°C° 0 mm 5 mps 723 mmHg 16%
    07:00 +36°C° 0 mm 6 mps 724 mmHg 15%
    08:00 +38°C° 0 mm 6 mps 724 mmHg 14%
    09:00 +40°C° 0 mm 5 mps 724 mmHg 13%
    10:00 +42°C° 0 mm 5 mps 724 mmHg 12%
    11:00 +43°C° 0 mm 4 mps 725 mmHg 10%
    12:00 +44°C° 0 mm 4 mps 724 mmHg 10%
    13:00 +44°C° 0 mm 3 mps 724 mmHg 10%
    14:00 +45°C° 0 mm 3 mps 723 mmHg 9%
    15:00 +45°C° 0 mm 3 mps 723 mmHg 9%
    16:00 +44°C° 0 mm 3 mps 723 mmHg 9%
    17:00 +44°C° 0 mm 3 mps 722 mmHg 10%
    18:00 +43°C° 0 mm 3 mps 722 mmHg 11%
    19:00 +42°C° 0 mm 4 mps 722 mmHg 12%
    20:00 +41°C° 0 mm 4 mps 722 mmHg 13%
    21:00 +40°C° 0 mm 4 mps 722 mmHg 13%
    22:00 +38°C° 0 mm 4 mps 723 mmHg 14%
    23:00 +37°C° 0 mm 4 mps 723 mmHg 14%

    Tomorrow, 25 April, Thursday

    Time Temperature Precipitation Wind Pressure Humidity
    00:00 +37°C° 0 mm 5 mps 723 mmHg 15%
    01:00 +36°C° 0 mm 6 mps 722 mmHg 16%
    02:00 +35°C° 0 mm 7 mps 722 mmHg 18%
    03:00 +35°C° 0 mm 7 mps 722 mmHg 18%
    04:00 +34°C° 0 mm 6 mps 722 mmHg 19%
    05:00 +34°C° 0 mm 6 mps 722 mmHg 20%
    06:00 +35°C° 0 mm 6 mps 723 mmHg 20%
    07:00 +36°C° 0 mm 6 mps 723 mmHg 20%
    08:00 +36°C° 0 mm 5 mps 724 mmHg 20%
    09:00 +39°C° 0 mm 5 mps 724 mmHg 17%
    10:00 +41°C° 0 mm 6 mps 724 mmHg 14%
    11:00 +44°C° 0 mm 6 mps 725 mmHg 11%
    12:00 +45°C° 0 mm 6 mps 724 mmHg 10%
    13:00 +46°C° 0 mm 6 mps 723 mmHg 10%
    14:00 +46°C° 0 mm 6 mps 723 mmHg 9%
    15:00 +46°C° 0 mm 7 mps 722 mmHg 9%
    16:00 +46°C° 0 mm 7 mps 722 mmHg 9%
    17:00 +45°C° 0 mm 7 mps 721 mmHg 10%
    18:00 +44°C° 0 mm 6 mps 722 mmHg 10%
    19:00 +42°C° 0 mm 5 mps 722 mmHg 11%
    20:00 +40°C° 0 mm 4 mps 722 mmHg 12%
    21:00 +40°C° 0 mm 4 mps 722 mmHg 13%
    22:00 +38°C° 0 mm 4 mps 722 mmHg 14%
    23:00 +37°C° 0 mm 5 mps 722 mmHg 15%

    Day after tomorrow, 26 April, Friday

    Time Temperature Precipitation Wind Pressure Humidity
    00:00 +36°C° 0 mm 5 mps 722 mmHg 18%
    01:00 +36°C° 0 mm 5 mps 722 mmHg 20%
    02:00 +35°C° 0 mm 5 mps 722 mmHg 23%
    03:00 +35°C° 0 mm 5 mps 721 mmHg 24%
    04:00 +34°C° 0 mm 5 mps 721 mmHg 25%
    05:00 +34°C° 0 mm 5 mps 721 mmHg 26%
    06:00 +35°C° 0 mm 5 mps 722 mmHg 25%
    07:00 +36°C° 0 mm 5 mps 722 mmHg 24%
    08:00 +38°C° 0 mm 6 mps 723 mmHg 23%
    09:00 +40°C° 0 mm 5 mps 723 mmHg 20%
    10:00 +42°C° 0 mm 5 mps 723 mmHg 17%
    11:00 +44°C° 0 mm 4 mps 723 mmHg 13%
    12:00 +46°C° 0 mm 5 mps 723 mmHg 12%
    13:00 +46°C° 0 mm 5 mps 722 mmHg 10%
    14:00 +47°C° 0 mm 5 mps 722 mmHg 9%
    15:00 +47°C° 0 mm 5 mps 721 mmHg 9%
    16:00 +46°C° 0 mm 5 mps 721 mmHg 9%
    17:00 +46°C° 0 mm 5 mps 721 mmHg 9%
    18:00 +45°C° 0 mm 5 mps 721 mmHg 10%
    19:00 +42°C° 0 mm 4 mps 722 mmHg 11%
    20:00 +40°C° 0 mm 3 mps 722 mmHg 13%
    21:00 +39°C° 0 mm 3 mps 722 mmHg 13%
    22:00 +38°C° 0 mm 3 mps 722 mmHg 14%
    23:00 +38°C° 0 mm 2 mps 722 mmHg 14%

    27 April, Saturday

    Time Temperature Precipitation Wind Pressure Humidity
    00:00 +37°C° 0 mm 3 mps 722 mmHg 15%
    01:00 +36°C° 0 mm 3 mps 722 mmHg 15%
    02:00 +36°C° 0 mm 4 mps 721 mmHg 16%
    03:00 +35°C° 0 mm 4 mps 721 mmHg 15%
    04:00 +34°C° 0 mm 3 mps 721 mmHg 14%
    05:00 +34°C° 0 mm 3 mps 721 mmHg 14%
    06:00 +35°C° 0 mm 3 mps 722 mmHg 12%
    07:00 +37°C° 0 mm 4 mps 723 mmHg 11%
    08:00 +40°C° 0 mm 4 mps 723 mmHg 10%
    09:00 +41°C° 0 mm 4 mps 723 mmHg 9%
    10:00 +43°C° 0 mm 5 mps 724 mmHg 9%
    11:00 +46°C° 0 mm 6 mps 724 mmHg 8%
    12:00 +46°C° 0 mm 6 mps 723 mmHg 7%
    13:00 +47°C° 0 mm 6 mps 722 mmHg 7%
    14:00 +47°C° 0 mm 6 mps 722 mmHg 6%
    15:00 +47°C° 0 mm 6 mps 721 mmHg 6%
    16:00 +47°C° 0 mm 6 mps 721 mmHg 6%
    17:00 +46°C° 0 mm 6 mps 720 mmHg 5%
    18:00 +45°C° 0 mm 5 mps 720 mmHg 6%
    19:00 +42°C° 0 mm 4 mps 721 mmHg 6%
    20:00 +40°C° 0 mm 3 mps 721 mmHg 7%
    21:00 +39°C° 0 mm 3 mps 721 mmHg 7%
    22:00 +38°C° 0 mm 2 mps 721 mmHg 7%
    23:00 +37°C° 0 mm 2 mps 721 mmHg 8%

    28 April, Sunday

    Time Temperature Precipitation Wind Pressure Humidity
    00:00 +36°C° 0 mm 2 mps 721 mmHg 8%
    01:00 +35°C° 0 mm 2 mps 720 mmHg 9%
    02:00 +33°C° 0 mm 1 mps 720 mmHg 9%
    03:00 +33°C° 0 mm 1 mps 720 mmHg 10%
    04:00 +32°C° 0 mm 1 mps 720 mmHg 11%
    05:00 +29°C° 0 mm 0 mps 720 mmHg 12%
    06:00 +33°C° 0 mm 1 mps 720 mmHg 11%
    07:00 +36°C° 0 mm 2 mps 721 mmHg 10%
    08:00 +39°C° 0 mm 2 mps 722 mmHg 10%
    09:00 +40°C° 0 mm 2 mps 722 mmHg 9%
    10:00 +42°C° 0 mm 2 mps 722 mmHg 8%
    11:00 +43°C° 0 mm 1 mps 722 mmHg 7%
    12:00 +45°C° 0 mm 2 mps 721 mmHg 7%
    13:00 +45°C° 0 mm 2 mps 720 mmHg 6%
    14:00 +46°C° 0 mm 2 mps 720 mmHg 6%
    15:00 +46°C° 0 mm 3 mps 719 mmHg 6%
    16:00 +46°C° 0 mm 3 mps 719 mmHg 6%
    17:00 +47°C° 0 mm 4 mps 719 mmHg 6%
    18:00 +45°C° 0 mm 3 mps 719 mmHg 7%
    19:00 +43°C° 0 mm 3 mps 719 mmHg 8%
    20:00 +42°C° 0 mm 3 mps 720 mmHg 8%
    21:00 +40°C° 0 mm 3 mps 720 mmHg 9%
    22:00 +39°C° 0 mm 3 mps 720 mmHg 9%
    23:00 +38°C° 0 mm 3 mps 720 mmHg 10%

    29 April, Monday

    Time Temperature Precipitation Wind Pressure Humidity
    00:00 +38°C° 0 mm 3 mps 719 mmHg 10%
    01:00 +37°C° 0 mm 3 mps 719 mmHg 10%
    02:00 +37°C° 0 mm 3 mps 719 mmHg 10%
    03:00 +36°C° 0 mm 3 mps 719 mmHg 12%
    04:00 +35°C° 0 mm 3 mps 719 mmHg 13%
    05:00 +34°C° 0 mm 3 mps 719 mmHg 15%
    06:00 +35°C° 0 mm 3 mps 720 mmHg 14%
    07:00 +37°C° 0 mm 4 mps 720 mmHg 14%
    08:00 +38°C° 0 mm 4 mps 721 mmHg 13%
    09:00 +40°C° 0 mm 3 mps 721 mmHg 11%
    10:00 +42°C° 0 mm 2 mps 721 mmHg 9%
    11:00 +45°C° 0 mm 2 mps 721 mmHg 7%
    12:00 +46°C° 0 mm 2 mps 720 mmHg 6%
    13:00 +47°C° 0 mm 3 mps 719 mmHg 5%
    14:00 +47°C° 0 mm 3 mps 719 mmHg 5%
    15:00 +48°C° 0 mm 4 mps 718 mmHg 4%
    16:00 +48°C° 0 mm 5 mps 718 mmHg 4%
    17:00 +48°C° 0 mm 6 mps 718 mmHg 4%
    18:00 +46°C° 0 mm 5 mps 718 mmHg 5%
    19:00 +44°C° 0 mm 4 mps 718 mmHg 6%
    20:00 +42°C° 0 mm 3 mps 719 mmHg 6%
    21:00 +40°C° 0 mm 3 mps 719 mmHg 7%
    22:00 +40°C° 0 mm 4 mps 719 mmHg 7%
    23:00 +38°C° 0 mm 4 mps 719 mmHg 7%
    Show more